SPOT 7 (40053 NORAD) Tracking and Keplerian Element Data

This shows tracking and keplerian element data for the satellite.

Feedback or suggestion? Click here.




ElementValue
Catalog40053
NameSPOT 7
Epoch Orbit25582
Epoch Day110.13855022
Epoch Year2019
RAAN177.5571
Inclination98.1467
Eccentricity0.0001465
Argument of Perigee75.8236
Mean Anonmoly284.3133
Mean Motion14.58577088
Decay Rate-3.1E-07
L11 40053U 14034A 19110.13855022 -.00000031 00000-0 30590-5 0 9999
L22 40053 98.1467 177.5571 0001465 75.8236 284.3133 14.58577088255828

Live tracking and technical data element details for SPOT 7 (NORAD 40053). SPOT 7 can be tracked NOW for your location showing map with azimuth and elevation plus other details from your city location.

Track the satellite on the map from your city or location and see movement details for azimuth, elevation, latitude, longitude, range, height, and movement on the map or in text.







IsCatalogInMostPopularTable: catalog: 40053, numindb: 235
Update: records affected: 1



GetName: 40053 SPOT 7

Hit Count: updated at: Sat, 20 Apr 2019 20:10:12 GMT